Terminal Aerodrome Forecast
Issued by NWS

Home | Current Version | Previous Version | Text Only | Print | Product List | Glossary On
Versions: 1 2 3 4 5 6 7 8 9 10 11 12 13 14 15 16 17 18 19 20 21 22 23 24 25 26 27 28 29 30 31 32 33 34 35 36 37 38 39
000
FTUS43 KDLH 211700
TAFBRD
TAF
KBRD 211725Z 2118/2218 13008KT P6SM OVC014
      TEMPO 2118/2120 SCT016 BKN025
     FM212000 14008KT P6SM -SHRA VCTS SCT015CB OVC035
     FM220100 13005KT P6SM BKN040
     FM220600 VRB03KT 2SM BR OVC006
     FM221500 35005KT 5SM BR OVC008=

USA.gov is the U.S. government's official web portal to all federal, state and local government web resources and services.